Location: Hard
(49.9417°N, 12.0858°E)
Time: 17:52:30
(UTC+00:00)

Meteor 1-11 - Pass Details

Date: 07 June 2020
Orbit: 843 x 885 km, 81.2° (Epoch: 13 July)

Event Time Altitude Azimuth Distance (km) Brightness Sun altitude
Exits shadow 01:03:56 18° 209° (SSW) 1,937 5.4 -13.1°
Maximum altitude 01:08:01 61° 286° (WNW) 953 4.4 -12.8°
Drops below altitude 10° 01:13:34 10° 7° (N) 2,476 7.8 -12.3°
Sets 01:16:02 0° 11° (N) 3,417 8.9 -12.1°
